EW5231 Weather Reports


time (UTC)temp
F
wind
direction
speed
knots
gust
knots
rain 1hr
in
rain 24hr
in
rain mn
in
humidity
%
barometer
mb
20260510150022 50 236 1.7 5.2 0.09 0.13 0.09 91 1010.8
20260510144531 51 205 0.9 3.5 0.05 0.09 0.05 89 1010.6
20260510143053 51 126 2.6 5.2 0.00 0.04 0.00 86 1010.0
20260510141546 51 209 1.7 13.0 0.00 0.04 0.00 85 1010.3
20260510140015 52 220 1.7 6.1 0.00 0.04 0.00 85 1010.2
20260510134515 52 219 2.6 7.0 0.00 0.04 0.00 85 1010.2
20260510133009 51 184 2.6 8.7 0.00 0.04 0.00 88 1010.1
20260510131504 49 245 2.6 5.2 0.00 0.04 0.00 93 1010.1
20260510130002 48 120 3.5 9.6 0.00 0.04 0.00 95 1009.8
20260510124558 47 180 2.6 7.8 0.00 0.04 0.00 96 1010.3
20260510123028 46 154 1.7 7.0 0.00 0.04 0.00 96 1010.6
20260510121523 46 153 3.5 7.0 0.00 0.04 0.00 96 1010.2
20260510120053 46 159 1.7 8.7 0.00 0.04 0.00 96 1010.3
20260510114550 46 328 0.9 6.1 0.00 0.04 0.00 96 1010.1
20260510113047 45 120 3.5 8.7 0.00 0.04 0.00 96 1009.7
20260510111554 45 183 3.5 8.7 0.00 0.04 0.00 96 1009.9
20260510110043 45 155 2.6 8.7 0.00 0.04 0.00 96 1009.6
20260510104548 45 160 4.3 9.6 0.00 0.04 0.00 96 1009.0
20260510103010 45 109 2.6 8.7 0.00 0.04 0.00 96 1009.2
20260510101509 45 142 2.6 8.7 0.00 0.04 0.00 96 1009.2
20260510100005 45 123 3.5 9.6 0.00 0.04 0.00 96 1008.8
20260510094506 45 148 3.5 10.4 0.00 0.04 0.00 96 1008.6
20260510093004 45 168 4.3 7.0 0.00 0.04 0.00 96 1008.6
20260510091503 45 124 1.7 7.0 0.00 0.04 0.00 96 1008.3
20260510090100 45 182 2.6 8.7 0.00 0.04 0.00 96 1008.4
20260510084602 44 126 4.3 11.3 0.00 0.04 0.00 96 1008.2
20260510083056 44 126 4.3 12.2 0.00 0.04 0.00 96 1008.7
20260510081623 44 165 4.3 8.7 0.00 0.04 0.00 96 1008.8
20260510080027 44 148 4.3 10.4 0.00 0.04 0.00 96 1008.9
20260510074523 44 148 4.3 10.4 0.00 0.04 0.00 96 1008.7
20260510073019 44 163 3.5 11.3 0.00 0.04 0.00 96 1008.6
20260510071518 44 142 5.2 11.3 0.00 0.04 0.00 96 1008.6
20260510070019 44 128 5.2 7.8 0.00 0.04 0.04 96 1009.0
20260510064512 44 163 5.2 12.2 0.00 0.04 0.04 96 1008.8
20260510063009 44 188 3.5 10.4 0.00 0.04 0.04 96 1008.9
20260510061512 44 162 7.8 13.0 0.00 0.04 0.04 96 1009.0
20260510060007 44 136 4.3 12.2 0.00 0.04 0.04 96 1009.2
20260510054514 44 156 6.1 11.3 0.00 0.04 0.04 96 1009.0
20260510053106 43 152 5.2 12.2 0.00 0.04 0.04 96 1009.1
20260510051602 43 157 3.5 13.0 0.00 0.04 0.04 96 1008.9
20260510050003 43 140 5.2 14.8 0.00 0.04 0.04 96 1008.9
20260510044502 43 138 5.2 13.0 0.00 0.04 0.04 96 1009.2
20260510043037 43 150 5.2 15.6 0.00 0.04 0.04 96 1008.9
20260510041533 43 157 5.2 10.4 0.00 0.04 0.04 96 1008.9
20260510040038 43 140 5.2 11.3 0.00 0.04 0.04 96 1009.2
20260510034526 43 145 5.2 10.4 0.00 0.04 0.04 96 1009.1
20260510033039 43 137 3.5 12.2 0.00 0.04 0.04 96 1009.1
20260510031525 42 148 4.3 12.2 0.00 0.04 0.04 95 1009.2
20260510030127 42 196 5.2 13.0 0.00 0.04 0.04 96 1009.3
20260510024553 42 169 6.1 13.0 0.00 0.04 0.04 95 1009.3
20260510023053 42 114 3.5 14.8 0.00 0.04 0.04 95 1009.3
20260510021537 42 148 7.8 14.8 0.00 0.04 0.04 95 1009.4
20260510020019 42 138 6.1 12.2 0.00 0.04 0.04 95 1009.8
20260510014502 42 117 5.2 9.6 0.00 0.04 0.04 94 1009.8
20260510013108 42 113 3.5 9.6 0.00 0.04 0.04 94 1009.7
20260510011538 42 124 5.2 10.4 0.00 0.04 0.04 94 1010.2
20260510010037 42 129 6.1 12.2 0.00 0.04 0.04 94 1010.1
20260510004540 42 136 4.3 11.3 0.00 0.04 0.04 94 1010.1
20260510003043 42 136 6.1 9.6 0.00 0.04 0.04 94 1009.8
20260510000055 42 157 6.1 9.6 0.00 0.04 0.04 94 1009.3
20260509234559 42 146 6.1 14.8 0.00 0.04 0.04 94 1009.2
20260509233056 42 138 3.5 9.6 0.00 0.04 0.04 93 1009.4
20260509231549 42 144 3.5 10.4 0.00 0.04 0.04 93 1009.5
20260509230034 43 162 5.2 10.4 0.00 0.04 0.04 93 1009.4
20260509224536 43 150 5.2 11.3 0.00 0.04 0.04 93 1009.4
20260509223033 43 147 4.3 9.6 0.00 0.04 0.04 93 1009.4
20260509221537 42 164 5.2 11.3 0.00 0.04 0.04 93 1009.6
20260509220022 43 149 5.2 9.6 0.00 0.04 0.04 93 1009.7
20260509214513 42 156 5.2 13.9 0.00 0.04 0.04 93 1009.7
20260509213114 43 155 4.3 9.6 0.00 0.04 0.04 93 1009.7
20260509211615 42 109 5.2 13.0 0.00 0.04 0.04 93 1009.7
20260509210036 42 130 7.8 12.2 0.00 0.04 0.04 92 1009.7
20260509204533 42 119 3.5 9.6 0.00 0.04 0.04 92 1010.0
20260509203044 42 165 5.2 12.2 0.00 0.04 0.04 91 1010.1
20260509201602 42 118 6.1 8.7 0.00 0.04 0.04 91 1010.2
20260509200030 42 146 6.1 13.0 0.00 0.04 0.04 91 1010.3
20260509194534 43 180 1.7 8.7 0.00 0.04 0.04 91 1010.5
20260509193006 43 134 2.6 7.8 0.00 0.04 0.04 90 1010.4
20260509191620 43 140 3.5 8.7 0.00 0.04 0.04 90 1010.4
20260509190049 43 105 2.6 8.7 0.00 0.04 0.04 91 1010.4
20260509184559 43 118 1.7 7.0 0.00 0.04 0.04 91 1010.7
20260509183043 42 130 3.5 10.4 0.01 0.04 0.04 90 1010.9
20260509181546 42 105 4.3 8.7 0.02 0.04 0.04 90 1010.9
20260509180039 42 136 2.6 8.7 0.02 0.04 0.04 90 1011.1
20260509174539 42 130 4.3 9.6 0.03 0.04 0.04 88 1011.3
20260509173108 43 139 5.2 10.4 0.03 0.03 0.03 89 1011.4
20260509171539 42 134 6.1 13.0 0.02 0.02 0.02 89 1011.5
20260509170014 43 155 5.2 13.9 0.02 0.02 0.02 86 1011.6
20260509164535 43 164 2.6 7.0 0.01 0.01 0.01 85 1011.7
20260509163027 44 159 7.0 13.9 0.00 0.00 0.00 80 1011.8
20260509161530 44 190 5.2 15.6 0.00 0.00 0.00 78 1011.8
20260509160024 45 143 3.5 14.8 0.00 0.00 0.00 74 1011.9
20260509154522 47 129 9.6 16.5 0.00 0.00 0.00 66 1012.0
20260509153052 48 165 6.1 13.9 0.00 0.00 0.00 60 1012.3
20260509151550 48 135 3.5 8.7 0.00 0.00 0.00 58 1012.3